Аэропорт
Дашогуз (UTAT)

 UTAT / TAZ
ЗЦ Центральная Азия
Дашогуз (UTAT)
Дашогуз (UTAT)
 41.76110, 59.82670  / 272 ft

 UTAT 300600Z 11010KT CAVOK 10/M03 Q1029 R08/CLRD70 NOSIG
 TAF UTAT 292256Z 3000/3024 08012G22KT CAVOK TEMPO 3006/3012 14012G22KT
UTAT_aip_1705
показать схемы

Аэропорт Дашогуз — аэропорт в 10 км на юго-запад от Дашогуза, Туркмения. Основан в 1924 году.

Дашогуз является одним из старейших аэропортов Туркмении. Первый авиарейс выполнен в 1924 году. В 2009 году завершена реконструкция здания аэровокзала. 



2020 © VATRUS division (Privacy Policy)